Location: Les Jeannots
(43.2262°N, 5.5774°E)
Time: 08:22:38
(UTC+00:00)

Meteor 1-11 - Pass Details

Date: 05 July 2020
Orbit: 842 x 886 km, 81.2° (Epoch: 04 August)

Event Time Altitude Azimuth Distance (km) Brightness Sun altitude
Exits shadow 21:05:31 12° 185° (S) 2,300 6.0 -14.9°
Maximum altitude 21:10:41 82° 98° (E) 869 4.2 -15.4°
Drops below altitude 10° 21:16:23 10° 12° (NNE) 2,512 7.3 -16.0°
Sets 21:18:50 0° 12° (NNE) 3,460 8.1 -16.3°
